Ekwok, AK (99580)

4:20 PM AKDT on April 18, 2015 (GMT -0800)
New Stuyahok AP, New Stuyahok | | Change Station
CLOSE
Current Station
Airport
Location: New Stuyahok AP, New Stuyahok,
Elevation: 302 ft
Nearby Weather Stations

Elev 302 ft 59.45 °N, 157.33 °W | Updated 6 minutes ago

Light Rain
Light Rain
41 °F
Feels Like 33 °F
N
16
Wind Variable Wind from East

Today
High -- | Low -- °F
--% Chance of Precip.
Yesterday
High -- | Low -- °F
Precip. -- in
7:07 AM 9:53 PM
New Moon, 0% visible
Pressure 29.17 in
Visibility 7.0 miles
Clouds Mostly Cloudy 2800 ft
Mostly Cloudy 5000 ft
Overcast 11000 ft
Windchill 33 °F
Dew Point 37 °F
Humidity 87%
Rainfall 0.01 in
Snow Depth Not available.
UV 1 out of 12
Pollen Not available.
Air Quality Not available.
Flu Activity Sporadic
SPECI PANW 190014Z AUTO 10014KT 7SM -RA BKN028 BKN050 OVC110 05/03 A2917 RMK AO2 TSNO RAB00 P0000 $

More Conditions Fewer Conditions

Pressure 29.17 in
Visibility 7.0 miles
Clouds Mostly Cloudy 2800 ft
Mostly Cloudy 5000 ft
Overcast 11000 ft
Windchill 33 °F
Dew Point 37 °F
Humidity 87%
Rainfall 0.01 in
Snow Depth Not available.
UV 1 out of 12
Pollen Not available.
Air Quality Not available.
Flu Activity Sporadic
SPECI PANW 190014Z AUTO 10014KT 7SM -RA BKN028 BKN050 OVC110 05/03 A2917 RMK AO2 TSNO RAB00 P0000 $

More Conditions Fewer Conditions

10-Day Weather Forecast

Almanac

Astronomy

Apr. 18, 2015 Rise Set
Actual Time
Civil Twilight
Nautical Twilight
Astronomical Twilight
Moon
Length of Visible Light
Length of Day
Tomorrow will be .
, % of the Moon is Illuminated

Today's Extremes

State Highs State Lows

Community

WunderPhotos

Upload Photos

1,814,594 photos uploaded!

WunderBlogs® & News

Nearby

Air Quality

  Air Quality AQ Index Pollutant
Not available.

Snow Depth

Station Depth Elevation

Earthquake Activity

City Distance Mag. Time & Date
Minimum magnitude displayed is 2.5.

Coastal Water Temperatures

Place Temperature

Stations

Nearby Weather Stations

Station Location Temp. Windchill Dew Point Humidity Wind Precip. Elev Updated Type